Weather History for EIKN - April, 2014

Change the Weather History Date:

Tuesday, April 1, 2014

  Actual Average Record
Temperature  
Mean Temperature 44 °F -  
Max Temperature 54 °F - - ()
Min Temperature 35 °F - - ()
Degree Days  
Heating Degree Days 20    
Moisture  
Dew Point 42 °F    
Average Humidity 88    
Maximum Humidity 100    
Minimum Humidity 61    
Precipitation  
Precipitation 0.00 in - - ()
Sea Level Pressure  
Sea Level Pressure 29.78 in    
Wind  
Wind Speed 6 mph ()    
Max Wind Speed 16 mph    
Max Gust Speed -    
Visibility 2.9 miles    
Events Fog    
T = Trace of Precipitation, MM = Missing Value Source: Averaged Metar Reports

Daily Weather History Graph

Daily Weather History Graph

Search for Another Location

Airport or City:

Trip Planner

Search our weather history database for the weather conditions in past years. The results will help you decide how hot, cold, wet, or windy it might be!

Date:

Astronomy

Apr. 01, 2014 Rise Set
Actual Time 7:08 AM IST 8:10 PM IST
Civil Twilight 6:32 AM IST 8:46 PM IST
Nautical Twilight 5:49 AM IST 9:30 PM IST
Astronomical Twilight 5:01 AM IST 10:18 PM IST
Moon 7:47 AM IST 10:39 PM IST
Length of Visible Light 14h 14m
Length of Day
13h 02m
Waxing Crescent, 4% of the Moon is Illuminated
Apr 1
Waxing Crescent
Apr 7
First Quarter
Apr 15
Full
Apr 22
Last Quarter
Apr 29
New

Hourly Weather History & Observations

Time (IST) Temp. Windchill Dew Point Humidity Pressure Visibility Wind Dir Wind Speed Gust Speed Precip Events Conditions
12:00 AM 44 °F - 44 °F 100% 29.81 in - SE 4.5 mph - -  
1:00 AM 44 °F - 44 °F 97% 29.81 in - SSE 4.5 mph - -  
2:00 AM 43 °F - 42 °F 95% 29.81 in - South 6.7 mph - -  
3:00 AM 42 °F - 42 °F 99% 29.81 in - South 6.7 mph - -  
4:00 AM 41 °F - 41 °F 99% 29.81 in - SSE 2.2 mph - -  
5:00 AM 40 °F - 40 °F 99% 29.81 in - South 4.5 mph - -  
6:00 AM 40 °F - 39 °F 96% 29.81 in 0 mi SSE 4.5 mph - - Fog Partial Fog
6:00 AM 39.2 °F 35.9 °F 39.2 °F 100% 29.77 in 0.2 mi SSE 4.6 mph - N/A Fog Fog
6:30 AM 39.2 °F 35.9 °F 39.2 °F 100% 29.77 in 0.2 mi SE 4.6 mph - N/A Fog Fog
7:00 AM 37 °F - 37 °F 100% 29.82 in 0 mi SE 4.5 mph - - Fog Partial Fog
7:00 AM 37.4 °F 33.8 °F 37.4 °F 100% 29.77 in 0.2 mi SE 4.6 mph - N/A Fog Fog
7:30 AM 35.6 °F 31.7 °F 35.6 °F 100% 29.80 in 0.2 mi ESE 4.6 mph - N/A Fog Fog
8:00 AM 37 °F - 37 °F 100% 29.83 in 0 mi SE 4.5 mph - - Fog Partial Fog
8:00 AM 37.4 °F 33.8 °F 37.4 °F 100% 29.80 in 0.1 mi SE 4.6 mph - N/A Fog Fog
8:30 AM 37.4 °F 33.8 °F 37.4 °F 100% 29.80 in 0.1 mi SE 4.6 mph - N/A Fog Fog
9:00 AM 40 °F - 40 °F 99% 29.83 in 0 mi ESE 4.5 mph - - Fog Partial Fog
9:00 AM 39.2 °F 35.9 °F 39.2 °F 100% 29.80 in 0.1 mi ESE 4.6 mph - N/A Fog Fog
9:30 AM 41.0 °F 38.0 °F 41.0 °F 100% 29.80 in 0.1 mi SE 4.6 mph - N/A Fog Fog
10:00 AM 41 °F - 41 °F 100% 29.84 in 0 mi SE 6.7 mph - - Fog Partial Fog
10:00 AM 41.0 °F 37.1 °F 41.0 °F 100% 29.80 in 0.1 mi SE 5.8 mph - N/A Fog Fog
10:30 AM 41.0 °F 36.4 °F 41.0 °F 100% 29.80 in 0.0 mi SE 6.9 mph - N/A Fog Fog
11:00 AM 43 °F - 42 °F 95% 29.83 in 0 mi SE 6.7 mph - - Fog Partial Fog
11:00 AM 42.8 °F 38.6 °F 42.8 °F 100% 29.80 in 0.1 mi SE 6.9 mph - N/A Fog Fog
11:30 AM 42.8 °F 38.6 °F 42.8 °F 100% 29.80 in 0.1 mi SE 6.9 mph - N/A Fog Fog
12:00 PM 44 °F - 44 °F 100% 29.83 in 1 mi SE 6.7 mph - - Fog Light Fog
12:00 PM 44.6 °F 40.7 °F 44.6 °F 100% 29.80 in 0.7 mi SE 6.9 mph - N/A Fog Scattered Clouds
12:30 PM 46.4 °F 42.9 °F 44.6 °F 93% 29.80 in 6.2 mi SE 6.9 mph - N/A   Mostly Cloudy
1:00 PM 46 °F - 44 °F 90% 29.82 in 15 mi ESE 6.7 mph - - Fog Light Fog
1:00 PM 46.4 °F 42.9 °F 44.6 °F 93% 29.80 in 6.2 mi ESE 6.9 mph - N/A   Mostly Cloudy
1:30 PM 48.2 °F - 46.4 °F 93% 29.77 in 6.2 mi East 9.2 mph - N/A   Mostly Cloudy
2:00 PM 49 °F - 45 °F 80% 29.81 in 34 mi ESE 11.2 mph - -   Mostly Cloudy
2:00 PM 48.2 °F - 44.6 °F 87% 29.77 in 6.2 mi ESE 10.4 mph - N/A   Mostly Cloudy
2:30 PM 50.0 °F - 44.6 °F 82% 29.77 in 6.2 mi ESE 9.2 mph - N/A   Scattered Clouds
3:00 PM 49 °F - 44 °F 79% 29.79 in 34 mi East 8.9 mph - -   Partly Cloudy
3:00 PM 50.0 °F - 44.6 °F 82% 29.77 in 6.2 mi East 9.2 mph - N/A   Mostly Cloudy
3:30 PM 50.0 °F - 42.8 °F 76% 29.77 in 6.2 mi ESE 9.2 mph - N/A   Mostly Cloudy
4:00 PM 53 °F - 44 °F 61% 29.77 in 34 mi ESE 11.2 mph - -   Partly Cloudy
4:00 PM 53.6 °F - 42.8 °F 67% 29.74 in 6.2 mi ESE 11.5 mph - N/A   Mostly Cloudy
4:30 PM 51.8 °F - 44.6 °F 76% 29.74 in 6.2 mi ESE 9.2 mph - N/A   Mostly Cloudy
5:00 PM 53 °F - 44 °F 61% 29.75 in 34 mi ESE 13.4 mph - -   Partly Cloudy
5:00 PM 53.6 °F - 42.8 °F 67% 29.74 in 6.2 mi ESE 12.7 mph - N/A   Mostly Cloudy
5:30 PM 51.8 °F - 42.8 °F 71% 29.74 in 6.2 mi East 10.4 mph - N/A   Mostly Cloudy
6:00 PM 52 °F - 44 °F 66% 29.74 in 34 mi East 8.9 mph - -   Partly Cloudy
6:00 PM 51.8 °F - 44.6 °F 76% 29.71 in 6.2 mi East 9.2 mph - N/A   Mostly Cloudy
7:00 PM 51 °F - 43 °F 66% 29.73 in 31 mi East 8.9 mph - -   Partly Cloudy
7:00 PM 51.8 °F - 42.8 °F 71% 29.71 in 6.2 mi East 9.2 mph - N/A   Mostly Cloudy
8:00 PM 49 °F - 43 °F 74% 29.73 in - East 11.2 mph - -  
9:00 PM 47 °F - 43 °F 82% 29.72 in - East 13.4 mph - -  
10:00 PM 46 °F - 40 °F 72% 29.71 in - East 15.7 mph - -  
11:00 PM 46 °F - 39 °F 68% 29.71 in - East 15.7 mph - -